Regional Weather Roundup
Issued by NWS

Home | Current Version | Previous Version | Text Only | Print | Product List | Glossary On
Versions: 1 2 3 4 5 6 7 8 9 10 11 12 13 14 15 16 17 18 19 20 21 22 23 24 25 26 27 28 29 30 31 32 33 34 35 36 37 38 39 40 41 42 43 44 45 46 47 48 49 50
000
ASPQ40 PGUM 050110
RWRPQ
WEATHER ROUNDUP FOR THE MARIANAS AND MICRONESIA
NATIONAL WEATHER SERVICE TIYAN GU
1100 AM CHST SAT SEP 05 2015

GUZ001>004-050200-
MARIANA ISLANDS-

CITY           SKY/WX    TMP DP  RH WIND       PRES   REMARKS
GUAM AIRPORT   PTSUNNY   88  75  66 SW13      29.82S HX  97
ANDERSEN AFB   MOSUNNY   86  75  70 W12G21    29.82S HX  95
ROTA AIRPORT   MOSUNNY   84  77  79 SW7       29.82S HX  94
TINIAN AP      MOSUNNY   84  77  79 SW13      29.78S HX  94
SAIPAN AP      MOSUNNY   84  79  84 S8        29.79S HX  96

$$

PMZ161-050200-
REPUBLIC OF PALAU-

CITY           SKY/WX    TMP DP  RH WIND       PRES   REMARKS
KOROR AP       PTSUNNY   88  77  70 SW15      29.88F HX 100
KOROR WSO      PTSUNNY   86  75  70 W13       29.91F HX  95

$$

PMZ171>174-050200-
FEDERATED STATES OF MICRONESIA-

CITY           SKY/WX    TMP DP  RH WIND       PRES   REMARKS
YAP AIRPORT    CLOUDY    84  77  79 SW14      29.86S HX  94
CHUUK AP       PTSUNNY   90  82  79 SW9       29.85F HX 111
POHNPEI AP     PTSUNNY   88  79  74 W6        29.85F HX 102
POHNPEI WSO    NOT AVBL
KOSRAE AP      CLOUDY    90  81  74 W15       29.81F HX 108

$$

PMZ181-050200-
REPUBLIC OF THE MARSHALL ISLANDS-

CITY           SKY/WX    TMP DP  RH WIND       PRES   REMARKS
KWAJALEIN AP   CLOUDY    81  75  83 SE6       29.83F
MAJURO AP      NOT AVBL
MAJURO WSO     CLOUDY    82  77  83 SW6       29.78  HX  91

$$



USA.gov is the U.S. government's official web portal to all federal, state and local government web resources and services.